Back to catalog

COSMOS 1579 COOLANT

LostLEO
NORAD 28271·DEBRIS·🇷🇺 Russia

Launched Jun 29, 1984 from Baikonur Cosmodrome

Loading…

Next Passes (next 24 hours)

TLE

StaleSource: Space-Track

Epoch: Jan 17, 2024, 15:25 UTC

1 28271U 84069AG  24017.64238222  .00000448  00000-0  41882-3 0  9992
2 28271  65.0550  28.2775 0060582 291.4918  67.9694 13.91403557529194

Track COSMOS 1579 COOLANT in real time with AllMySat

Download on the App Store